Regional Weather Roundup
Issued by NWS

Home | Current Version | Previous Version | Graphics & Text | Print | Product List | Glossary On
Versions: 1 2 3 4 5 6 7 8 9 10 11 12 13 14 15 16 17 18 19 20 21 22 23 24 25 26 27 28 29 30 31 32 33 34 35 36 37 38 39 40 41 42 43 44 45 46 47 48 49 50
000
ASUS45 KPSR 080410
RWRAZ

ARIZONA HOURLY REGIONAL WEATHER ROUNDUP
NATIONAL WEATHER SERVICE PHOENIX AZ
900 PM MST TUE JUL 07 2015

NOTE: FAIR INDICATES FEW OR NO CLOUDS BELOW 12,000 FEET WITH NO
SIGNIFICANT WEATHER AND/OR OBSTRUCTIONS TO VISIBILITY.

AZZ001>003-036-080500-
NORTHWEST ARIZONA

CITY           SKY/WX    TMP DP  RH WIND       PRES   REMARKS
BULLHEAD CITY  CLEAR     95  57  28 N6        29.66R
KINGMAN        PTCLDY    81  43  26 S8        29.90S
$$

AZZ004>008-015-016-018-080500-
NORTH CENTRAL ARIZONA

CITY           SKY/WX    TMP DP  RH WIND       PRES   REMARKS
GRAND CANYON   CLOUDY    64  46  52 S3        30.18R
WILLIAMS       CLOUDY    64  48  55 S8        30.25F
PRESCOTT       MOCLDY    68  56  65 S8        30.07F
FLAGSTAFF      CLOUDY    58  54  86 SW3       30.22S
PAYSON         CLEAR     73  45  35 N5        30.09S
PAGE           MOCLDY    80  51  36 CALM      29.99R
$$

AZZ009>014-017-080500-
NORTHEAST ARIZONA

CITY           SKY/WX    TMP DP  RH WIND       PRES   REMARKS
WINSLOW        PTCLDY    67  48  50 S3        30.06S
SAINT JOHNS    CLEAR     68  47  46 CALM      30.12R
WINDOW ROCK    MOCLDY    59  54  83 SW3       30.17
SHOW LOW       CLEAR     63  46  55 SE5       30.19R
$$

AZZ023-080500-
GREATER PHOENIX AREA

CITY           SKY/WX    TMP DP  RH WIND       PRES   REMARKS
PHOENIX        PTCLDY   103  44  13 NW6       29.71R
BUCKEYE        CLEAR     91  48  22 SW10      29.73R
LUKE AFB       CLEAR     97  50  20 SW6       29.71R
DEER VALLEY    CLEAR     97  45  16 SW3       29.74R
SCOTTSDALE     CLEAR     98  46  17 CALM      29.76R
CHANDLER       PTCLDY   100  48  17 NW6       29.73R
$$

AZZ027-028-080500-
SOUTHWEST MARICOPA COUNTY AND PINAL COUNTY

CITY           SKY/WX    TMP DP  RH WIND       PRES   REMARKS
CASA GRANDE    CLEAR     95  50  21 CALM      29.75R
GILA BEND      CLEAR     98  38  12 SW12      29.71R
$$

AZZ503-504-507>509-080500-
SOUTHEAST ARIZONA

CITY           SKY/WX    TMP DP  RH WIND       PRES   REMARKS
TUCSON         MOCLDY    95  48  20 CALM      29.88R
DAVIS-MONTHAN  PTCLDY    90  53  27 NW3       29.87R
NOGALES        CLEAR     82  56  40 CALM      29.99R
SIERRA VISTA   MOCLDY    76  58  53 SW12      30.06R
DOUGLAS        CLEAR     76  61  59 CALM      30.01R
SAFFORD        CLEAR     83  57  41 N6        29.89R
$$

AZZ020-021-025-026-031-080500-
SOUTHWEST ARIZONA

CITY           SKY/WX    TMP DP  RH WIND       PRES   REMARKS
YUMA           PTCLDY    95  49  20 S8        29.68R
$$

CAZ031-033-041-043-047-048-061-080500-
SOUTHERN CALIFORNIA

CITY           SKY/WX    TMP DP  RH WIND       PRES   REMARKS
DOWNTOWN L.A.  MOCLDY    67  60  78 CALM      29.88R
L.A. AIRPORT   PTCLDY    66  61  84 SW9       29.89R
SAN DIEGO      CLOUDY    68  59  73 W5        29.93R
BURBANK        CLEAR     67  59  75 S7        29.88R
ONTARIO        CLEAR     68  59  73 W12       29.89R
RIVERSIDE      CLEAR     69  59  70 W8        29.89R
PALM SPRINGS   CLEAR     92  55  28 NW22G29   29.69R
EL CENTRO NAS  PTCLDY    94  36  13 W23G32    29.67R
IMPERIAL       CLEAR     92  40  16 W16G24    29.64R
BLYTHE         CLEAR    102  51  18 SW8       29.65R
NEEDLES        CLEAR    103  43  13 SW10      29.67R
$$

NVZ020-UTZ003-080500-
SOUTHERN NEVADA-UTAH

CITY           SKY/WX    TMP DP  RH WIND       PRES   REMARKS
LAS VEGAS      MOCLDY    95  49  20 S8        29.72S
SALT LAKE CITY CLOUDY    76  52  43 SE8       29.96R
$$

NMZ009-TXZ055-080500-
NEW MEXICO-WEST TEXAS

CITY           SKY/WX    TMP DP  RH WIND       PRES   REMARKS
ALBUQUERQUE    LGT RAIN  69  57  65 NE15G23   30.12R
EL PASO        MOCLDY    72  62  71 E7        30.05R
$$


........................KEY........................
SKY/WX - SKY CONDITION/WEATHER
TMP    - TEMPERATURE IN FAHRENHEIT
DP     - DEW POINT IN FAHRENHEIT
RH     - RELATIVE HUMIDITY IN PERCENT
WIND   - DIRECTION AND SPEED IN MILES PER HOUR (MPH)
VRB    - VARIABLE WIND DIRECTION
PRES   - MEAN SEA LEVEL PRESSURE IN INCHES OF MERCURY
         F - FALLING PRESSURE   R - RISING PRESSURE
         S - STEADY PRESSURE
VSB    - VISIBILITY IN MILES
HX     - HEAT INDEX IN FAHRENHEIT
WCI    - WIND CHILL INDEX IN FAHRENHEIT
TC     - TEMPERATURE IN CELSIUS WHICH IS ALSO KNOWN AS
         TEMPERATURE IN CENTIGRADE
AFB    - AIR FORCE BASE
         LUKE AFB IS LUKE AIR FORCE BASE
         DAVIS-MONTHAN IS DAVIS-MONTHAN AIR FORCE BASE
NAS    - NAVAL AIR STATION
         EL CENTRO NAS IS EL CENTRO NAVAL AIR STATION
N/A    - NOT AVAILABLE



USA.gov is the U.S. government's official web portal to all federal, state and local government web resources and services.